Wind_Speed
23 23 22 22 23 23 24 24 23 22 23 25 25 24 22 22 22 22 21 21 19 18 17 16 15 15 15 15 14 13 13 14 13 14 14 13 12 13 13 12 12 12 11 11
22 21 20 23 24 24 24 23 22 22 24 25 26 25 24 23 22 22 22 21 19 18 18 17 17 17 16 16 15 15 15 14 14 14 13 13 12 13 13 14 13 13 13 12
22 21 22 23 23 23 24 23 23 23 25 26 26 25 24 23 23 23 22 21 20 18 18 17 17 17 16 16 16 16 16 16 15 14 14 13 13 14 14 14 14 14 14 15
23 22 23 23 23 23 23 23 24 25 26 26 26 26 24 23 23 23 22 22 20 19 19 18 18 19 18 17 17 17 17 17 16 16 15 15 15 14 15 15 15 15 15 15
23 24 24 24 22 23 23 24 25 25 26 27 26 26 24 24 23 23 23 22 21 21 20 20 20 20 19 18 18 18 19 19 18 17 17 17 16 15 16 16 16 16 16 16
24 25 25 24 24 25 24 25 25 26 26 27 25 26 24 23 23 23 23 23 22 21 21 21 21 20 20 20 20 19 20 19 18 18 18 18 18 18 17 17 17 17 17 16
26 25 25 25 25 25 24 25 26 25 26 25 24 25 24 23 23 24 23 23 22 22 21 22 22 20 21 21 21 20 19 18 18 18 18 18 18 18 17 17 17 17 17 17
25 25 24 24 24 24 24 25 26 26 26 24 23 24 23 23 23 23 23 24 23 22 22 23 22 22 21 20 21 20 19 19 18 18 18 18 19 19 19 19 18 19 18 17
25 24 23 23 23 24 24 25 24 26 26 25 25 24 23 22 23 23 22 23 22 22 22 22 23 23 22 21 20 20 19 19 19 18 18 18 19 20 20 20 19 19 19 18
25 25 24 23 24 25 25 25 26 27 27 26 25 23 21 22 23 23 22 21 21 21 21 21 22 23 23 22 22 21 20 19 18 18 18 18 18 19 20 20 20 19 19 18
25 25 24 24 26 25 25 26 27 27 27 27 25 23 21 21 21 22 22 22 21 21 22 22 23 23 22 22 21 21 21 20 19 19 19 19 19 19 20 20 20 20 20 19
26 26 25 25 25 26 26 26 26 27 26 26 26 23 22 21 21 21 21 22 22 21 21 21 21 21 21 21 20 20 21 20 20 20 20 20 19 20 20 20 20 20 20 20
26 27 27 26 26 27 27 26 26 27 26 26 26 23 22 22 22 23 22 22 22 21 20 20 21 21 21 21 20 21 21 20 20 19 20 20 20 20 20 20 20 20 20 20
25 27 27 26 25 25 26 26 26 27 27 27 25 23 21 22 22 23 23 22 22 22 20 20 21 22 20 19 20 21 21 20 19 19 19 19 20 20 21 21 21 21 21 21
25 26 27 27 25 25 25 26 26 27 27 27 24 23 22 22 23 23 23 23 22 21 20 20 20 21 21 20 19 20 20 20 20 20 20 20 20 20 21 21 21 21 21 21
25 26 27 28 26 25 26 26 26 27 27 27 25 24 23 23 23 24 24 24 23 22 22 21 21 20 20 20 19 20 20 20 20 20 20 19 19 19 19 20 19 20 21 21
25 25 26 27 27 27 26 25 26 26 27 27 26 24 24 25 23 24 25 25 24 23 23 22 22 21 21 21 20 20 20 20 20 20 20 20 19 19 20 20 19 19 19 19
26 26 26 26 27 28 25 25 25 25 25 27 26 26 25 25 25 25 25 25 24 24 24 23 23 22 22 21 21 20 20 21 21 21 20 20 19 19 19 19 19 19 19 19
25 25 26 26 27 28 27 26 26 27 27 27 26 25 25 25 26 26 25 24 24 24 24 23 22 22 22 21 21 21 20 21 21 21 20 19 18 18 18 18 19 19 19 20
26 26 26 27 27 28 27 27 27 28 28 26 25 25 25 25 25 25 25 25 25 24 23 22 22 22 21 21 21 20 20 20 20 20 19 19 19 18 18 19 19 20 20 20
25 25 25 26 27 27 27 28 28 28 27 26 25 25 25 25 24 25 25 25 25 24 23 23 22 21 21 21 20 20 20 20 20 20 19 19 19 19 19 19 19 19 20 20
24 25 25 26 27 26 26 27 28 27 26 26 25 24 25 25 24 25 25 25 25 25 24 24 23 22 22 21 21 20 20 20 19 19 19 19 19 19 19 19 19 19 19 19
25 25 25 25 26 25 26 26 26 25 25 24 24 24 24 23 23 24 24 25 26 26 25 25 25 25 24 23 22 22 21 21 20 19 19 19 19 19 19 18 18 19 19 19
23 24 23 23 24 25 25 25 25 24 23 24 24 24 24 24 24 24 24 26 26 26 26 26 26 26 25 24 22 22 21 21 21 19 19 19 19 19 19 19 19 19 19 18
21 22 22 22 23 25 25 25 24 24 24 24 24 24 24 24 24 25 26 25 26 26 26 26 24 24 24 24 22 22 22 21 21 20 20 20 19 19 19 20 19 19 19 18
20 21 22 22 23 24 24 25 24 24 24 24 24 23 24 24 24 24 25 25 26 26 25 25 24 24 24 23 23 23 22 22 21 21 21 20 20 20 20 20 21 20 19 19
Wind_Direction
244 242 241 241 241 241 242 243 245 246 249 252 253 253 254 257 258 261 262 265 268 269 270 271 273 272 269 269 271 270 273 277 283 286 285 282 270 269 266 264 265 268 270 273
244 244 241 241 242 242 243 245 247 247 248 251 253 254 255 257 259 260 262 262 263 266 268 269 269 271 269 267 269 271 274 277 279 283 283 281 272 267 264 261 262 265 269 274
245 244 242 243 243 243 245 248 250 249 248 252 255 254 253 254 256 258 259 260 260 264 269 268 268 270 270 267 268 269 272 274 276 279 279 277 272 266 262 261 261 264 266 270
244 242 242 243 244 246 248 250 252 251 250 251 255 255 252 254 255 257 259 261 263 265 269 269 267 266 267 268 269 268 271 274 275 277 277 274 272 269 265 263 263 263 267 270
244 243 243 244 245 247 248 249 251 252 253 253 255 258 254 253 256 258 259 261 266 267 268 269 267 263 264 267 270 271 273 272 272 275 275 272 271 273 270 268 265 265 266 269
244 244 245 245 245 247 247 248 251 253 253 253 255 256 256 256 256 255 256 259 262 265 267 267 266 264 265 269 271 273 272 270 271 274 274 271 271 272 268 268 266 264 266 269
244 244 244 245 245 246 247 248 251 252 252 254 255 254 257 258 256 256 255 258 262 262 266 267 265 263 264 266 266 270 271 270 272 274 274 271 270 269 266 266 266 266 267 267
245 243 242 244 244 247 248 248 251 253 254 256 256 257 259 259 258 259 260 259 260 262 265 267 265 262 265 265 264 267 270 269 270 272 274 270 270 267 266 266 268 268 269 270
245 244 243 243 243 244 246 248 251 253 255 257 258 260 260 259 261 260 259 258 258 260 263 264 263 263 264 265 266 268 268 268 267 269 273 269 267 267 268 269 269 269 268 270
246 244 243 242 242 242 244 245 246 249 253 258 261 263 263 262 263 261 258 259 261 262 262 264 264 262 263 265 267 267 267 266 265 267 270 269 268 267 268 269 268 268 267 268
247 246 243 242 241 241 242 244 245 248 254 258 262 263 263 264 264 262 259 260 263 263 264 267 266 263 262 263 264 265 266 266 267 270 269 269 271 268 270 268 266 266 266 267
245 245 243 243 241 240 242 244 245 249 253 259 261 261 263 263 262 263 262 261 263 263 266 268 268 266 265 263 262 264 265 268 268 270 269 272 271 270 269 267 264 264 265 266
243 243 244 242 241 240 240 242 245 247 253 257 261 263 263 262 264 263 262 263 264 263 265 267 268 269 268 266 266 265 265 266 271 273 274 274 271 271 270 267 263 263 264 263
244 243 244 246 246 243 242 243 245 247 251 256 260 263 261 262 264 262 262 265 265 265 263 266 267 267 269 268 268 268 266 268 270 273 276 276 274 270 269 268 264 262 261 261
245 245 244 246 246 243 242 242 246 249 251 255 258 260 262 264 264 262 262 264 267 265 264 264 265 266 265 267 269 268 269 270 271 274 276 277 275 271 268 268 266 262 261 262
246 246 246 247 246 246 245 244 248 251 253 256 258 261 262 264 264 262 262 265 267 263 263 264 264 265 264 264 265 267 270 270 272 274 274 277 275 271 271 270 269 267 264 264
245 248 249 249 249 249 249 250 252 253 254 256 258 260 262 262 263 264 264 264 263 263 267 268 266 264 264 264 265 267 268 267 269 271 273 273 273 273 273 272 271 269 268 267
247 249 250 251 251 253 254 254 253 252 253 256 258 259 261 262 263 264 263 263 263 263 266 267 264 263 262 262 264 264 264 265 266 270 272 272 272 273 273 273 272 270 269 268
249 249 250 251 253 253 254 256 256 255 255 257 257 259 262 262 262 263 262 260 261 262 264 264 262 260 260 261 262 260 261 265 267 269 271 273 274 272 270 271 272 271 272 271
250 250 250 250 252 253 254 256 257 258 259 258 257 258 260 260 261 263 261 258 259 261 261 260 259 259 260 262 261 258 261 264 267 269 270 273 274 272 270 270 272 273 272 273
248 249 250 250 252 253 254 255 257 258 259 259 259 258 258 259 260 262 260 257 258 259 259 258 259 259 260 261 258 257 259 263 266 267 268 270 270 269 269 270 272 274 274 274
248 249 250 250 250 253 254 254 256 258 257 258 257 257 257 258 258 259 258 258 259 259 258 257 257 257 256 255 256 258 260 262 265 266 266 267 268 267 269 272 273 275 277 276
251 250 250 251 250 253 253 255 255 256 256 256 256 255 255 256 257 258 258 256 257 256 257 257 257 257 255 255 255 256 259 260 261 264 265 265 267 267 270 272 275 278 278 278
255 253 252 250 249 252 253 253 252 253 255 255 254 254 255 256 255 257 260 257 256 256 256 257 257 255 255 255 254 254 257 259 260 261 263 265 266 267 269 272 276 278 279 279
259 257 253 250 249 251 252 252 252 251 254 255 253 254 256 257 258 259 260 255 256 257 256 257 254 253 254 253 252 252 253 256 259 261 261 263 266 268 269 271 273 275 275 277
259 256 253 251 249 249 248 249 250 251 252 254 255 255 256 260 261 261 260 258 257 255 255 256 253 252 252 252 252 251 251 253 255 259 261 263 266 267 268 270 271 272 273 275
Height
5813 5817 5819 5821 5823 5824 5826 5828 5830 5832 5832 5833 5834 5835 5837 5838 5838 5839 5840 5841 5841 5842 5842 5842 5842 5842 5842 5842 5842 5842 5842 5842 5842 5841 5841 5841 5841 5842 5842 5842 5842 5842 5842 5841
5810 5813 5815 5816 5817 5819 5821 5823 5826 5828 5827 5828 5829 5830 5832 5833 5834 5835 5835 5836 5837 5838 5838 5838 5838 5838 5838 5839 5839 5838 5838 5838 5839 5838 5838 5838 5838 5839 5839 5839 5839 5839 5839 5838
5806 5809 5810 5811 5813 5815 5817 5819 5821 5822 5822 5822 5824 5825 5827 5829 5829 5830 5831 5831 5832 5833 5833 5833 5834 5834 5834 5834 5834 5835 5835 5835 5835 5835 5835 5835 5835 5835 5835 5835 5835 5835 5835 5835
5801 5803 5804 5806 5808 5810 5812 5814 5814 5815 5816 5817 5819 5819 5822 5823 5824 5825 5826 5827 5827 5828 5829 5829 5829 5829 5830 5830 5830 5830 5830 5831 5831 5831 5831 5832 5832 5832 5832 5832 5832 5832 5832 5832
5796 5798 5799 5801 5804 5805 5807 5807 5808 5810 5810 5812 5813 5813 5817 5818 5819 5820 5821 5822 5823 5823 5824 5824 5824 5825 5825 5826 5826 5826 5826 5826 5827 5827 5827 5827 5828 5828 5828 5828 5828 5828 5828 5828
5791 5792 5794 5796 5798 5799 5801 5802 5803 5804 5805 5806 5809 5809 5810 5812 5814 5815 5816 5817 5818 5818 5819 5819 5819 5820 5821 5821 5821 5821 5821 5821 5822 5822 5822 5822 5822 5823 5823 5823 5824 5824 5824 5824
5785 5786 5788 5790 5792 5794 5795 5797 5798 5798 5799 5801 5803 5803 5806 5807 5809 5810 5811 5812 5812 5813 5813 5814 5814 5815 5815 5816 5816 5816 5816 5816 5816 5817 5816 5816 5817 5817 5818 5819 5819 5819 5819 5819
5778 5781 5783 5785 5787 5789 5790 5792 5793 5794 5795 5796 5798 5798 5801 5802 5803 5804 5805 5806 5807 5808 5808 5808 5809 5809 5810 5810 5811 5810 5811 5811 5811 5811 5811 5811 5811 5812 5813 5814 5814 5815 5815 5814
5772 5775 5778 5779 5781 5783 5784 5786 5789 5789 5790 5791 5792 5794 5796 5797 5797 5799 5800 5801 5802 5803 5803 5803 5803 5804 5804 5805 5805 5805 5805 5805 5806 5806 5805 5806 5806 5807 5808 5808 5809 5809 5810 5810
5767 5769 5772 5773 5775 5777 5779 5781 5782 5783 5784 5785 5787 5789 5791 5791 5792 5793 5795 5796 5797 5797 5797 5798 5797 5798 5799 5799 5800 5800 5800 5800 5800 5800 5800 5801 5801 5802 5802 5803 5804 5804 5804 5805
5761 5763 5766 5768 5769 5771 5773 5775 5776 5778 5779 5780 5781 5785 5786 5786 5787 5788 5789 5790 5791 5792 5792 5793 5793 5793 5794 5794 5794 5794 5794 5794 5794 5795 5795 5796 5796 5796 5797 5797 5798 5798 5799 5799
5755 5757 5759 5762 5764 5765 5767 5769 5771 5773 5774 5775 5776 5781 5780 5781 5782 5783 5784 5785 5786 5787 5787 5787 5787 5788 5788 5788 5788 5789 5789 5789 5789 5790 5790 5790 5790 5790 5791 5791 5792 5792 5793 5793
5749 5751 5753 5755 5760 5761 5761 5763 5765 5767 5768 5769 5771 5776 5774 5775 5776 5777 5778 5779 5780 5781 5781 5782 5782 5783 5782 5783 5783 5783 5783 5783 5784 5785 5785 5784 5784 5784 5785 5785 5786 5786 5787 5787
5743 5745 5748 5750 5752 5754 5756 5758 5760 5761 5762 5763 5766 5768 5769 5770 5771 5771 5772 5774 5774 5775 5776 5776 5777 5777 5777 5777 5777 5778 5778 5778 5779 5779 5779 5779 5779 5778 5779 5779 5780 5780 5781 5781
5736 5739 5741 5743 5745 5748 5750 5752 5754 5755 5757 5759 5761 5762 5764 5764 5765 5766 5767 5768 5769 5770 5771 5771 5771 5771 5771 5772 5772 5773 5773 5773 5773 5773 5773 5773 5773 5773 5773 5773 5774 5774 5775 5775
5730 5732 5734 5737 5739 5741 5743 5746 5748 5750 5751 5753 5755 5757 5758 5758 5759 5760 5761 5763 5764 5765 5765 5766 5766 5766 5766 5767 5767 5767 5768 5768 5768 5768 5768 5768 5767 5767 5767 5768 5768 5768 5769 5769
5723 5726 5728 5731 5733 5734 5737 5741 5742 5744 5745 5747 5749 5751 5752 5753 5754 5755 5756 5757 5758 5759 5760 5760 5760 5761 5761 5761 5762 5762 5763 5763 5763 5763 5763 5762 5762 5761 5761 5762 5762 5763 5763 5763
5717 5720 5722 5724 5727 5728 5733 5734 5736 5738 5739 5740 5742 5744 5745 5747 5748 5749 5750 5751 5752 5753 5754 5754 5754 5755 5755 5756 5756 5756 5757 5757 5757 5757 5757 5756 5756 5755 5755 5756 5756 5757 5757 5758
5710 5713 5715 5717 5719 5721 5725 5727 5729 5731 5733 5734 5736 5737 5739 5740 5741 5742 5743 5745 5746 5747 5748 5748 5748 5749 5749 5750 5750 5750 5751 5751 5751 5752 5752 5751 5750 5750 5750 5750 5751 5751 5752 5752
5704 5706 5709 5710 5712 5715 5719 5721 5722 5725 5726 5728 5729 5730 5732 5733 5735 5736 5737 5738 5739 5740 5741 5742 5742 5743 5743 5743 5744 5745 5745 5746 5746 5746 5746 5746 5745 5745 5745 5745 5745 5746 5746 5746
5697 5699 5701 5703 5705 5708 5711 5713 5715 5718 5720 5721 5722 5723 5725 5726 5728 5729 5730 5731 5732 5733 5734 5735 5736 5736 5737 5738 5738 5739 5739 5740 5740 5740 5740 5740 5740 5740 5740 5740 5740 5740 5740 5740
5691 5693 5695 5697 5699 5703 5704 5705 5708 5710 5711 5713 5715 5716 5718 5719 5720 5721 5723 5724 5725 5726 5727 5728 5729 5730 5731 5731 5732 5733 5734 5734 5734 5734 5734 5734 5734 5735 5735 5735 5734 5734 5734 5734
5684 5687 5688 5691 5694 5695 5696 5698 5700 5702 5704 5706 5707 5709 5711 5712 5713 5714 5715 5716 5717 5718 5720 5721 5722 5723 5724 5725 5726 5727 5727 5728 5728 5728 5728 5729 5729 5729 5729 5729 5729 5728 5728 5727
5677 5679 5681 5683 5686 5688 5690 5691 5693 5695 5697 5699 5700 5702 5704 5705 5706 5707 5708 5709 5710 5711 5712 5714 5715 5716 5717 5718 5718 5720 5720 5721 5722 5722 5723 5723 5723 5723 5723 5723 5723 5722 5722 5721
5672 5673 5674 5676 5679 5681 5683 5685 5687 5689 5690 5692 5693 5695 5697 5698 5699 5700 5701 5702 5702 5704 5705 5706 5708 5709 5710 5711 5712 5713 5714 5715 5716 5716 5717 5717 5717 5717 5717 5717 5717 5717 5716 5715
5666 5667 5668 5670 5672 5674 5676 5678 5680 5682 5684 5685 5687 5688 5690 5690 5691 5692 5693 5694 5695 5696 5698 5699 5700 5702 5703 5704 5705 5706 5707 5708 5709 5710 5710 5711 5711 5712 5711 5711 5711 5710 5710 5710